AirNav   TITAN Aviation Fuels
 
 1068 users online  

F57 Jack Browns Seaplane Base
Winter Haven, Florida, USA

GOING TO WINTER HAVEN?


FAA INFORMATION EFFECTIVE 09 SEPTEMBER 2021

Location

FAA Identifier: F57
Lat/Long: 28-03-27.0000N 081-45-46.1000W
28-03.450000N 081-45.768333W
28.0575000,-81.7628056
(estimated)
Elevation: 140 ft. / 43 m (estimated)
Variation: 02W (1985)
From city: 3 miles NW of WINTER HAVEN, FL
Time zone: UTC -4 (UTC -5 during Standard Time)
Zip code: 33881

Seaplane Base Operations

Seaplane Base use: Open to the public
Control tower: no
ARTCC: MIAMI CENTER
FSS: SAINT PETERSBURG FLIGHT SERVICE STATION
NOTAMs facility: PIE (NOTAM-D service available)
Attendance: DAYLIGHT HOURS
Wind indicator: yes
Segmented circle: no

Seaplane Base Communications

CTAF: 123.05
WX ASOS at GIF (0.6 nm NE): 133.675 (863-956-2097)
WX AWOS-3 at BOW (7 nm S): 123.775 (863-533-9004)
WX AWOS-3 at X07 (12 nm SE): 124.225 (863-678-1334)
WX AWOS-3PT at LAL (14 nm W): 118.025 (863-834-2030)
  • CTC WINTER HAVEN RGNL ARPT UNICOM FOR BOAT ACTVTY & LCL TFC.

Nearby radio navigation aids

VOR radial/distance  VOR name  Freq  Var
LALr071/14.0LAKELAND VORTAC116.0001E
ORLr218/36.9ORLANDO VORTAC112.2000E

Seaplane Base Services

Fuel available: 100LL
Parking: hangars and tiedowns
Airframe service: MINOR
Powerplant service: MINOR
Bottled oxygen: NONE
Bulk oxygen: NONE

Runway Information

Runway 1W/19W

Dimensions: 3600 x 2200 ft. / 1097 x 671 m
Surface: water
Runway edge markings: RY 01/19 UNMARKED.
RUNWAY 1W  RUNWAY 19W
Latitude: 28-03.152667N28-03.750833N
Longitude: 081-45.821667W081-45.713167W
Elevation: 140.0 ft.140.0 ft.
Traffic pattern: leftleft
Displaced threshold: 1200 ft.1000 ft.

Seaplane Base Ownership and Management from official FAA records

Ownership: Privately-owned
Owner: JON K. BROWN
2704 U.S. HIGHWAY 92
WINTER HAVEN, FL 33881
Phone 863-956-2243
Manager: BEN SHIPPS
JACK BROWNS SPB, 2704 U.S. HIGHWAY 92
WINTER HAVEN, FL 33880
Phone 863-956-2243

Seaplane Base Operational Statistics

Aircraft based on the field: 6
Single engine airplanes: 6
    
Aircraft operations: avg 27/day *
95% local general aviation
5% transient general aviation
* for 12-month period ending 23 July 2018

Additional Remarks

RCMD NORTH-SOUTH PAT TO RMN CLEAR OF AND BLW 900 FT TFC AT WINTER HAVEN RGNL ARPT.
SEAPLANE FACILITIES FOR LIGHT AIRCRAFT.
TWY TO WINTER HAVEN RGNL ARPT.
FOR CD CTC TAMPA APCH AT 813-878-2528

Instrument Procedures

There are no published instrument procedures at F57.

Some nearby airports with instrument procedures:

KGIF - Winter Haven Regional Airport (1 nm NE)
KBOW - Bartow Executive Airport (7 nm S)
X07 - Lake Wales Municipal Airport (12 nm SE)
KLAL - Lakeland Linder International Airport (14 nm W)
KPCM - Plant City Airport (21 nm W)
 
Loc | Ops | Rwys | IFR | FBO | Links
Com | Nav | Svcs | Stats | Notes


 
Area around F57 (Jack Browns Seaplane Base)
 
Road maps at: MapQuest Bing Google
 
Aerial photo
WARNING: Photo may not be current or correct
Aerial photo of F57 (Jack Browns Seaplane Base)
Taken in May 2005
looking southeast.

Do you have a better or more recent aerial photo of Jack Browns Seaplane Base that you would like to share? If so, please send us your photo.

 
Sectional chart

 
Airport distance calculator
Flying to Jack Browns Seaplane Base? Find the distance to fly.

From to F57

Sunrise and sunset
Times for 26-Sep-2021
 Local
(UTC-4)
 Zulu
(UTC)
Morning civil twilight06:5510:55
Sunrise07:1811:18
Sunset19:1823:18
Evening civil twilight19:4223:42

Current date and time
Zulu (UTC)  26-Sep-2021 22:17:27
Local (UTC-4)  26-Sep-2021 18:17:27
 
METAR
KGIF 262153Z AUTO 07007KT 10SM BKN070 31/19 A3004 RMK AO2 SLP171 T03060189
KBOW 
7nm S 
262155Z AUTO 03006KT 10SM CLR 31/19 A3004 RMK AO2
KX07 
12nm SE 
262155Z AUTO 07006KT 10SM CLR 30/21 A3005 RMK A01
KLAL 
15nm W 
262150Z 03006KT 10SM SCT050 30/19 A3003
TAF
KLAL 
15nm W 
261722Z 2618/2718 06006KT P6SM SCT035 BKN050 BKN250 FM270300 VRB03KT P6SM FEW040 FEW250 FM271400 06007KT P6SM SKC
NOTAMs
Click for the latest NOTAMs
NOTAMs are issued by the DoD/FAA and will open in a separate window not controlled by AirNav.

 

 
 

FBO, Fuel Providers, and Aircraft Ground Support

  
 Business Name 
 
 Contact 
 
 Services / Description 
 
Fuel Prices
 
Comments
  
Jack Brown's Seaplane Base 863-956-2243
no information available

If you are affiliated with Jack Brown's Seaplane Base and would like to show here your services, contact info, web link, logo, and more, click here
100LL
PS $5.25 
 Updated 18-Aug-2021
 
   2 read write
PS=Pump service
Update Fuel Prices
 

Would you like to see your business listed on this page?

 If your business provides an interesting product or service to pilots, flight crews, aircraft, or users of the Jack Browns Seaplane Base, you should consider listing it here.  To start the listing process, click on the button below
 
Add a business
 

Other Pages about Jack Browns Seaplane Base

www.gate.net/~seaplane
 
Update a link
 
Copyright © AirNav, LLC. All rights reserved. Privacy Policy  Contact